GFSSE_925_rhum_303.txt.gz
RH
84 78 82 83 81 83 76 88 85 76 72 70 74 67 53 63 65 65 56 63 79 91 91 93 95 94 91 96 92 97 92 91 85 87 89 89 89 97 97 91 95 94 94
75 79 78 85 84 82 72 78 72 59 60 57 65 63 67 83 81 94 92 95 87 86 87 89 90 92 92 91 92 100 82 83 84 88 90 89 91 94 94 87 86 92 91
71 78 75 84 80 83 82 84 72 63 56 58 72 76 94 96 96 95 95 83 82 90 86 87 88 86 94 96 98 94 82 80 84 90 90 92 92 94 95 90 90 94 90
73 78 75 84 80 80 82 84 80 73 64 65 81 87 91 95 94 96 95 96 91 91 88 95 90 89 90 89 90 85 85 84 81 87 88 91 92 89 91 90 88 87 89
83 80 77 82 82 78 81 87 84 85 75 71 78 85 87 91 95 96 96 87 89 87 95 92 91 85 88 86 85 82 80 82 85 87 93 88 86 90 89 86 87 86 84
83 78 78 79 80 79 76 83 86 84 84 80 80 82 83 85 95 94 80 73 76 72 79 96 85 83 84 84 83 84 83 83 86 91 94 87 86 87 90 88 87 88 82
76 74 74 77 77 79 76 78 83 83 84 83 81 80 82 90 89 84 74 68 64 64 72 76 76 80 79 79 79 76 80 82 86 90 84 80 82 87 84 87 85 96 94
74 75 73 75 76 76 76 75 76 78 80 84 79 79 83 87 82 77 73 70 62 62 66 69 69 74 79 81 77 77 78 81 88 86 84 82 81 84 87 86 91 97 92
68 70 68 72 74 74 76 75 74 73 77 80 83 80 82 84 82 80 76 68 61 56 62 66 65 68 79 79 79 84 82 80 85 86 83 84 84 86 86 85 96 97 94
78 76 69 64 71 72 74 75 76 74 73 75 79 83 82 82 83 82 77 66 56 53 56 60 66 74 82 80 79 83 81 86 88 85 84 86 84 84 85 85 92 97 91
78 75 77 78 71 71 70 73 77 77 76 76 76 82 82 86 88 87 79 72 59 57 52 54 58 70 82 80 84 84 83 86 85 84 82 87 84 82 87 96 95 98 83
75 82 94 96 83 76 70 73 73 81 81 81 81 85 88 89 88 90 83 76 70 67 58 52 46 53 71 75 79 88 86 86 84 85 85 90 85 82 88 96 97 99 76
76 64 72 82 90 92 80 74 76 75 83 83 84 86 87 92 92 95 89 85 78 72 68 60 56 47 48 63 73 86 86 88 86 86 86 85 86 85 89 93 91 98 88
64 65 72 83 93 89 98 83 77 73 73 84 86 86 90 94 94 95 94 84 77 73 70 58 57 52 45 43 62 64 84 81 86 84 82 82 84 90 88 93 92 99 97
61 58 61 73 81 88 100 99 85 79 77 74 75 87 90 87 92 93 91 85 79 75 74 60 58 53 53 41 44 58 79 79 80 78 76 82 76 81 90 96 98 100 96
61 55 54 62 68 74 82 94 98 94 80 77 75 76 87 86 85 90 92 89 85 77 72 65 57 55 57 51 43 56 60 69 73 75 75 80 70 70 88 96 100 99 98
63 57 48 55 59 62 72 84 88 97 98 86 78 72 81 84 84 83 88 92 90 80 72 70 60 55 61 67 65 63 59 56 58 68 67 66 72 72 78 90 98 98 97
65 59 48 48 45 52 59 71 82 100 99 96 92 99 88 86 79 84 86 87 89 86 76 72 64 54 62 67 68 62 58 56 54 63 67 68 71 77 78 90 90 95 97
66 66 61 49 44 41 51 61 65 76 97 99 100 100 98 86 82 81 86 84 86 89 82 72 68 60 64 67 68 62 61 62 62 66 70 71 72 80 75 92 91 93 92
66 64 61 59 50 43 47 52 55 61 67 75 83 99 100 96 86 82 76 84 83 90 83 73 67 63 64 68 66 67 73 70 68 73 70 71 75 84 82 85 92 91 93
66 68 67 61 57 58 71 64 72 75 53 58 70 96 100 100 97 90 83 88 83 86 82 73 69 66 64 69 67 84 83 82 74 74 78 78 79 88 84 80 90 93 95
66 69 71 75 69 66 77 78 86 85 66 69 76 72 98 100 100 98 90 89 82 84 85 72 68 71 69 68 73 74 94 98 94 85 90 93 85 88 88 84 85 90 94
70 71 73 75 80 79 67 74 76 67 70 77 71 62 66 78 90 100 95 90 88 82 84 76 69 69 74 70 64 62 86 84 94 97 100 98 100 99 89 84 81 83 96
72 69 69 70 78 78 83 80 89 97 93 88 91 78 60 62 69 96 100 90 90 88 82 79 72 68 68 76 74 63 57 64 92 98 100 99 100 100 96 90 81 80 92
74 77 75 72 71 76 85 90 93 96 97 92 88 89 73 54 59 67 100 99 92 92 88 80 76 68 68 68 76 73 69 65 71 91 93 98 99 100 97 90 79 76 86
74 77 82 82 82 73 79 88 94 98 96 98 98 96 93 90 72 57 77 100 93 90 88 85 78 71 67 66 72 69 66 68 85 82 94 87 90 99 96 90 87 84 77

GFSSE_925_rhum_306.txt.gz
RH
70 79 84 84 87 85 75 74 75 66 63 68 74 69 75 79 77 82 90 93 85 90 96 96 91 94 90 92 94 90 89 90 90 90 87 86 89 98 92 93 96 95 97
79 77 80 78 82 84 86 78 71 63 62 78 96 93 94 96 86 88 85 88 89 88 91 91 83 90 91 91 98 98 88 83 86 87 86 90 89 94 94 88 89 91 92
76 76 78 77 80 83 83 78 66 62 60 70 92 94 98 99 96 94 94 89 86 86 86 88 90 92 90 94 98 97 83 84 85 86 82 85 88 93 96 93 90 90 84
78 79 78 76 80 80 78 77 67 63 64 73 76 92 92 92 92 94 94 89 88 88 88 87 85 84 84 86 89 86 84 82 87 84 86 90 89 88 90 89 87 90 86
83 73 75 84 79 80 78 80 74 66 64 70 72 80 85 88 94 96 92 88 86 86 88 86 84 81 85 87 91 85 84 83 86 86 86 85 86 88 90 87 84 89 86
84 75 72 75 81 76 77 84 84 79 71 70 78 82 81 86 96 95 93 84 83 88 88 89 94 80 78 78 79 80 81 86 88 86 84 83 84 86 89 92 78 81 81
80 79 74 72 77 79 74 81 88 84 81 76 78 81 83 83 90 87 79 74 74 83 95 100 89 83 81 81 77 78 81 85 88 85 79 82 84 83 86 88 96 89 88
82 77 75 71 76 76 76 72 79 86 82 84 81 81 83 88 83 86 69 64 75 73 98 97 84 80 77 77 76 80 80 84 86 82 80 83 84 84 85 91 96 87 85
96 98 97 83 72 72 78 74 73 74 77 84 82 79 81 84 82 71 68 55 66 70 70 75 80 80 81 79 74 75 79 82 84 84 81 83 83 87 90 96 98 89 72
78 86 94 99 93 83 72 73 74 72 70 75 80 77 78 79 79 74 71 59 53 59 65 67 68 76 81 80 79 79 80 83 86 85 84 82 85 85 87 92 98 94 92
60 69 81 89 96 95 88 71 68 71 74 72 74 78 79 79 83 79 76 68 55 47 48 62 68 71 81 83 82 87 85 88 89 85 83 83 85 85 89 91 98 92 87
59 60 73 84 88 96 96 90 80 72 72 76 78 81 83 82 85 83 81 74 64 62 54 49 60 78 82 83 86 89 87 90 90 85 81 84 85 88 95 90 97 85 70
61 51 59 73 79 88 97 100 98 87 76 74 77 80 82 84 90 89 88 82 69 69 63 53 47 62 79 78 86 90 92 92 88 85 86 86 84 87 92 92 91 95 71
57 50 46 55 65 75 85 95 100 100 91 75 74 77 83 87 94 94 92 89 77 77 68 63 54 46 53 70 76 88 92 94 90 88 85 83 82 88 87 93 97 96 75
60 48 43 43 45 60 72 83 88 98 100 95 82 78 76 82 90 86 93 91 87 81 72 68 62 54 49 47 63 75 90 91 91 87 84 86 80 78 88 94 98 98 92
62 54 46 41 34 39 57 70 76 91 100 99 98 87 80 70 77 80 81 92 88 83 74 71 61 57 50 48 44 63 68 85 86 84 81 86 78 72 76 83 98 98 95
63 54 52 51 33 31 38 51 61 75 98 99 100 99 91 80 71 75 80 95 92 85 77 77 67 62 58 60 48 48 61 83 85 78 73 82 76 70 66 83 94 97 96
60 53 49 49 38 32 34 33 40 56 71 78 92 96 100 98 97 82 79 77 89 92 83 80 72 68 59 63 66 62 65 63 69 66 62 63 65 67 72 84 87 92 96
62 60 52 48 44 41 39 30 30 35 46 57 67 77 93 99 100 100 94 80 86 94 92 83 76 73 57 64 69 71 66 62 60 59 61 62 65 66 69 74 91 87 90
63 64 60 55 51 49 48 42 34 30 26 37 49 62 78 97 100 100 100 96 92 95 97 90 82 78 65 57 68 70 67 68 62 58 62 66 69 72 68 74 95 90 91
63 64 68 68 57 57 56 63 63 62 35 30 36 57 53 65 93 100 100 98 97 98 92 92 87 80 76 62 72 74 70 78 77 68 64 66 72 73 73 75 90 94 93
67 65 64 68 72 70 63 66 80 64 59 48 51 31 38 47 54 86 97 99 100 98 95 100 92 85 79 63 77 79 94 87 79 72 73 75 74 75 80 86 81 92 95
68 71 70 66 73 75 65 68 62 63 63 63 47 35 32 35 40 46 66 89 100 100 100 97 93 85 84 71 70 66 89 90 96 88 82 82 82 89 87 86 87 86 89
69 68 64 63 69 73 73 78 81 91 92 84 80 65 44 41 39 54 73 74 91 100 100 98 91 86 78 79 81 70 61 57 91 99 99 100 97 100 98 88 88 87 88
69 72 71 69 63 66 67 76 91 94 90 82 83 79 65 55 70 52 53 77 76 95 100 100 96 88 78 75 74 77 77 72 68 89 96 95 100 100 99 99 90 88 91
73 74 78 78 78 72 73 73 85 95 96 94 78 90 88 85 80 85 79 76 90 79 99 100 99 89 80 74 74 72 68 68 77 83 94 90 91 98 100 100 100 90 85

GFSSE_925_rhum_309.txt.gz
RH
69 83 88 83 84 84 77 74 67 68 68 80 84 82 68 66 80 88 93 82 80 85 94 93 90 84 90 92 94 90 91 93 89 88 87 88 92 99 97 91 93 96 97
78 77 85 84 80 82 76 75 70 64 65 76 69 88 75 87 89 94 95 94 89 94 92 92 93 86 90 96 91 96 84 84 81 82 82 84 89 89 87 89 91 96 95
77 79 86 82 80 80 82 72 68 58 58 63 91 95 96 90 90 89 91 90 89 90 91 91 91 90 92 93 91 99 94 80 79 75 77 86 92 96 92 89 86 90 96
83 72 76 80 81 79 81 74 65 60 62 82 89 95 94 90 90 95 90 90 87 86 88 91 90 84 83 87 91 89 80 84 77 73 83 82 82 90 90 89 88 82 87
81 71 72 77 80 81 77 75 66 61 72 74 83 85 81 79 82 82 87 87 87 78 80 80 82 80 82 85 86 86 82 82 82 86 87 86 85 87 88 87 89 83 77
89 82 76 74 78 79 79 75 72 66 69 72 77 78 83 80 81 88 85 81 78 83 84 81 85 80 82 84 86 83 83 83 82 88 90 83 85 89 88 85 86 85 75
98 97 93 84 77 77 77 77 82 79 72 68 76 81 81 83 88 75 80 80 86 87 85 86 89 84 82 84 80 81 82 82 81 79 88 86 84 87 88 87 84 83 83
96 98 97 92 89 90 77 75 76 77 77 74 75 82 80 86 81 62 60 73 78 92 98 98 90 87 86 79 77 76 77 82 80 83 79 86 85 85 93 96 90 94 93
83 89 93 94 91 91 88 84 74 75 75 74 78 84 82 78 81 70 56 57 85 100 99 92 83 82 81 79 81 76 77 82 80 82 85 82 82 88 95 94 76 70 80
68 79 84 88 93 90 89 88 87 73 74 74 77 78 76 76 77 74 65 54 50 89 91 82 81 77 77 74 73 80 82 86 83 82 85 78 87 92 96 96 85 83 70
47 59 72 80 86 95 95 92 89 90 74 72 73 78 76 75 79 74 74 61 56 46 60 67 72 79 79 79 82 79 86 89 88 86 87 80 86 90 94 95 97 70 70
52 46 51 61 74 87 98 99 94 92 96 81 73 75 80 79 80 78 76 72 62 56 53 59 60 66 76 81 88 88 86 88 97 88 83 84 88 89 94 95 97 70 72
58 40 39 41 50 70 84 94 99 92 89 88 82 76 75 78 79 82 82 82 73 62 62 70 71 67 71 78 82 85 84 88 93 90 86 87 89 89 96 95 89 80 72
56 54 38 35 31 46 68 76 88 99 100 94 90 85 78 74 75 78 86 86 83 71 66 62 63 64 75 79 84 82 80 80 89 87 84 81 86 81 95 92 95 91 72
57 59 46 39 29 30 39 51 67 88 99 99 98 96 96 85 78 77 78 91 88 74 69 68 61 54 58 75 78 86 79 68 77 88 81 81 81 72 86 94 98 95 79
58 58 50 49 31 28 29 28 42 66 86 84 99 100 99 100 94 83 81 81 93 83 78 72 66 62 53 50 65 75 82 73 73 77 84 84 84 75 69 95 96 96 91
60 62 62 52 32 31 27 25 28 36 46 63 76 88 98 100 99 99 91 84 89 91 86 77 74 67 61 55 48 53 71 83 78 75 76 78 83 79 66 82 92 94 95
60 60 58 59 38 30 30 26 27 30 25 36 51 68 82 95 100 100 100 100 93 89 95 84 80 73 66 59 56 49 53 64 81 72 74 72 77 76 69 65 87 89 95
62 62 60 54 52 42 32 25 26 26 25 29 31 62 54 68 86 99 97 100 100 99 99 92 86 77 72 66 64 55 49 60 72 80 75 70 62 67 64 62 84 86 92
62 64 64 61 59 53 43 39 32 28 25 30 38 35 28 41 57 77 98 98 100 100 100 99 91 86 75 65 68 69 68 69 64 63 71 68 61 62 61 64 76 86 91
60 62 65 67 64 66 55 67 65 52 34 29 43 31 36 28 30 42 64 92 98 100 100 100 99 95 88 77 76 82 77 72 70 68 62 64 63 64 68 68 69 77 89
62 66 65 67 72 71 68 77 81 73 70 49 43 42 43 34 30 29 43 69 96 98 99 100 100 100 95 86 78 83 82 86 84 72 67 64 64 67 71 73 73 75 82
63 69 68 70 71 74 70 74 62 64 67 64 46 42 43 47 47 59 43 40 49 91 98 100 100 100 95 92 78 67 79 74 76 87 81 72 69 71 73 75 74 78 78
64 69 71 74 73 72 72 83 87 85 83 82 86 68 45 50 67 60 76 71 68 78 98 99 100 100 100 92 90 74 63 61 72 90 100 88 79 79 78 75 77 86 85
68 66 72 74 74 75 80 84 89 88 87 88 87 86 72 55 67 73 80 76 47 36 38 80 98 100 100 97 82 80 78 70 69 72 78 92 100 98 99 85 90 84 89
71 71 75 72 77 78 78 79 87 90 93 91 90 91 90 87 70 75 84 84 83 76 62 69 79 94 100 100 99 76 73 72 76 69 78 79 81 91 98 100 100 88 89

GFSSE_925_rhum_315.txt.gz
RH
81 75 74 75 79 78 72 72 71 75 76 90 92 84 72 65 74 86 87 78 79 82 93 89 94 95 92 94 92 92 94 83 84 86 86 88 90 85 86 80 79 93 97
88 82 76 75 79 78 76 73 71 73 75 81 89 83 63 70 78 87 94 84 76 78 87 89 90 95 92 93 98 98 80 78 78 80 79 83 86 85 84 83 90 96 88
100 95 93 78 76 76 79 75 72 73 74 75 80 72 75 80 86 95 92 91 92 83 86 88 91 91 83 89 97 97 74 70 68 72 74 79 89 91 85 82 88 91 93
100 100 93 88 84 80 76 74 70 66 59 56 67 73 72 66 70 91 92 88 88 93 79 87 92 88 81 82 86 92 75 65 55 57 54 64 77 90 94 95 94 92 93
100 99 84 87 89 85 85 77 71 61 57 62 80 84 89 88 89 75 87 87 82 75 76 81 76 83 86 86 87 80 65 58 65 63 65 67 70 87 86 92 91 93 95
96 99 96 100 99 90 96 94 80 69 64 63 78 84 80 79 73 84 92 80 82 79 73 64 74 78 84 86 86 79 70 66 68 68 70 71 73 86 87 83 84 80 88
79 90 96 98 96 98 100 100 100 91 77 72 72 78 78 73 68 66 83 83 83 72 77 78 80 80 81 82 81 78 72 73 71 66 67 72 81 87 86 85 79 87 84
59 66 86 90 94 96 96 92 94 95 97 80 71 72 70 76 72 56 68 77 80 74 80 81 75 77 82 83 78 75 73 76 70 66 70 71 79 89 88 86 83 84 89
51 56 61 79 86 88 91 92 93 89 89 95 84 72 73 74 75 67 53 64 78 78 77 80 81 78 78 80 77 74 75 72 73 73 68 70 82 96 93 91 90 89 91
46 50 53 55 73 85 87 92 94 92 94 85 89 86 77 77 75 73 68 53 54 75 80 83 82 80 78 73 75 72 74 78 77 71 70 71 72 97 95 89 82 88 89
41 45 50 50 55 67 77 91 91 90 91 96 93 90 91 85 81 80 80 66 55 55 72 85 82 81 82 78 79 74 76 83 63 60 71 72 74 96 95 95 76 73 77
39 42 48 48 50 54 56 68 89 100 97 100 99 99 98 97 93 86 84 79 71 59 62 76 87 82 80 80 78 82 84 68 53 55 74 76 76 95 89 80 71 62 66
39 42 47 48 48 48 48 54 60 77 92 99 99 99 98 100 97 94 89 85 82 67 70 71 80 88 86 68 62 82 78 59 51 53 73 78 72 93 92 86 74 77 63
40 42 44 48 46 44 42 46 50 57 60 80 94 99 98 98 99 100 99 97 85 83 81 82 85 87 78 64 54 58 56 50 48 56 76 80 78 84 95 85 80 71 69
40 41 43 46 47 44 40 43 42 48 49 56 63 96 83 96 96 97 99 99 99 87 85 80 81 78 82 70 60 58 56 52 49 49 67 78 80 78 88 84 89 81 81
38 39 42 44 47 46 41 43 42 43 43 48 51 67 47 65 84 92 97 98 98 99 87 84 80 84 88 73 67 64 59 57 54 54 63 80 80 78 77 88 96 92 87
39 39 42 40 47 47 44 44 41 42 41 43 48 47 46 44 43 60 85 95 98 98 100 89 86 85 82 73 70 65 60 59 57 58 60 72 80 78 77 79 92 96 92
40 38 41 42 46 48 46 44 40 40 39 40 44 43 48 51 36 32 44 80 89 97 99 100 93 95 89 78 64 58 58 60 59 57 64 69 81 84 77 73 77 85 91
41 40 40 41 45 48 46 44 42 40 40 40 41 44 48 50 48 48 46 42 78 90 99 97 100 99 94 82 73 64 57 54 60 60 64 71 73 78 84 78 73 75 81
41 41 41 42 45 47 46 44 42 40 42 41 42 43 47 51 51 55 56 48 36 57 86 99 98 100 100 92 77 68 63 58 53 59 68 70 76 79 74 73 67 64 76
36 40 41 44 44 46 48 47 45 42 42 42 44 45 46 49 51 54 54 61 67 68 76 96 99 100 97 100 92 86 71 63 59 56 60 71 78 79 79 70 66 66 69
32 39 40 44 45 46 50 50 47 44 43 42 43 47 48 50 51 51 56 60 62 67 66 64 77 85 96 100 96 95 98 89 69 62 59 66 76 81 76 71 65 65 70
32 38 41 44 46 46 51 50 47 42 40 40 45 47 49 50 51 55 57 60 62 68 74 75 79 96 100 92 99 95 99 96 83 69 67 63 69 78 84 72 68 65 70
34 36 41 43 46 45 50 51 50 47 44 46 48 48 49 49 51 55 58 61 64 66 69 75 69 84 96 99 96 100 97 86 95 87 68 68 68 72 79 82 73 71 72
35 37 40 42 45 48 51 52 52 50 49 49 48 48 48 48 52 55 58 61 62 66 68 70 76 78 82 88 98 100 99 100 99 95 79 69 68 69 70 73 76 75 77
37 37 40 43 46 49 51 51 52 53 52 51 50 51 51 52 53 54 56 60 62 62 64 68 70 73 77 84 89 87 96 99 98 96 91 67 66 69 70 67 70 72 73

GFSSE_925_rhum_318.txt.gz
RH
98 99 86 76 78 78 74 72 72 74 75 84 90 79 66 71 78 85 82 83 79 82 92 96 95 94 94 95 90 91 80 73 79 81 81 84 85 86 85 81 84 94 97
100 100 90 92 81 78 78 75 72 72 73 74 82 65 60 70 80 89 85 80 83 82 91 75 86 92 94 86 94 98 82 76 74 76 80 84 85 84 81 82 84 91 96
99 100 92 82 88 86 80 77 76 74 70 71 70 59 66 71 75 83 89 79 95 80 90 87 90 84 87 87 95 87 77 71 72 79 78 78 81 83 83 84 87 87 95
99 99 100 76 79 92 83 80 73 66 59 59 59 67 69 66 65 84 83 86 85 83 81 83 77 80 79 82 81 73 67 62 67 69 74 76 78 89 93 91 91 91 94
96 99 100 100 98 100 94 89 87 74 68 65 74 85 89 89 85 71 81 85 81 83 78 69 63 74 87 84 78 68 52 64 66 67 66 69 73 86 94 93 92 95 92
75 90 93 99 100 98 100 100 99 92 84 76 76 79 82 78 72 82 84 82 82 74 72 63 61 78 86 83 77 66 58 69 69 70 71 73 77 89 88 91 87 87 91
58 72 82 93 99 100 100 98 96 97 94 85 79 79 77 77 70 67 76 80 82 72 69 72 80 81 81 80 76 71 66 72 72 68 71 73 61 84 90 86 90 80 90
52 58 67 81 88 91 100 100 99 92 93 93 90 82 75 74 74 65 60 79 80 75 79 81 74 79 79 79 78 71 70 76 76 72 70 73 74 89 87 84 84 85 87
46 53 56 65 77 81 88 98 100 98 96 100 93 88 83 80 76 75 63 57 72 78 79 77 78 76 76 78 80 72 68 73 77 75 72 65 81 93 91 89 88 87 90
40 40 44 52 64 68 74 81 96 96 98 100 94 89 86 86 89 79 75 67 56 64 77 79 79 80 76 80 77 68 67 70 72 72 72 70 66 94 95 89 91 92 91
40 40 39 38 45 53 59 65 79 89 97 99 100 97 94 93 94 94 91 81 68 61 61 72 85 86 82 75 77 75 71 66 68 72 68 71 53 96 86 76 83 76 86
43 43 39 37 36 40 45 53 60 70 80 95 99 99 100 100 100 100 96 96 91 76 62 69 79 81 84 82 76 70 72 68 64 68 60 68 55 87 97 79 72 74 77
43 44 44 35 35 36 35 42 48 50 56 65 80 89 91 98 99 100 99 97 95 95 76 65 66 56 80 78 85 76 60 59 63 64 61 65 66 74 96 80 76 78 71
42 43 43 39 36 37 36 40 44 38 49 47 53 62 64 78 86 93 96 98 100 99 100 86 76 65 65 72 70 74 70 59 54 61 57 62 58 68 90 72 78 73 76
41 42 40 40 42 42 38 41 43 38 44 42 53 42 37 42 50 64 84 94 99 99 100 100 96 84 80 69 59 63 61 65 56 50 50 59 60 64 72 74 81 71 70
40 42 40 42 38 41 41 40 43 38 43 39 47 43 37 40 29 34 41 68 87 93 96 100 99 100 82 79 66 60 58 57 59 56 55 62 60 58 71 77 77 92 87
40 41 42 45 40 38 37 39 40 41 40 40 45 41 36 46 38 35 31 38 38 64 89 96 99 98 99 90 80 65 60 61 59 59 58 65 70 71 72 78 86 95 95
42 40 42 43 42 42 39 39 38 38 40 42 45 42 38 43 33 35 47 46 34 32 54 90 96 92 100 96 86 75 64 60 60 60 58 60 68 70 72 80 76 83 90
42 41 42 41 41 38 34 39 37 35 41 41 45 43 40 44 35 38 45 49 50 41 43 60 76 100 97 99 92 89 72 61 59 61 59 59 65 72 71 76 80 76 85
41 41 43 43 42 34 30 33 32 33 42 41 45 40 46 45 37 40 51 45 46 50 61 57 59 52 93 99 100 90 77 66 66 67 59 58 67 69 76 74 79 74 79
39 41 43 45 45 45 42 44 41 38 44 41 44 36 44 41 46 47 53 53 54 59 61 68 77 78 58 92 97 100 87 72 66 59 56 60 62 72 76 79 76 76 73
36 40 43 45 46 47 49 50 49 44 43 42 40 45 47 47 45 53 54 58 61 65 65 68 69 84 86 90 99 100 99 97 91 80 65 56 61 66 76 80 79 76 72
35 39 43 45 46 46 50 49 47 47 45 47 48 48 48 48 50 52 53 58 64 65 69 70 71 73 91 88 94 99 98 98 93 84 73 63 58 61 75 81 76 76 71
36 38 41 44 46 47 51 52 53 53 54 53 53 51 51 48 53 50 54 58 60 65 66 69 71 76 80 84 81 90 85 100 98 99 89 85 69 65 68 81 82 74 70
36 38 41 43 45 49 51 52 53 54 54 54 53 53 54 56 57 54 57 57 61 64 65 66 69 71 75 79 87 90 89 84 92 98 97 90 89 80 72 76 84 78 72
37 39 41 43 46 50 52 53 54 55 55 56 56 57 60 60 60 61 60 61 62 63 64 67 69 70 73 78 82 83 86 91 84 94 94 94 91 79 73 72 77 82 78

GFSSE_925_rhum_321.txt.gz
RH
97 100 98 86 91 82 79 74 73 73 75 81 78 60 66 92 88 81 83 80 82 75 96 88 95 88 94 98 90 92 79 74 73 81 82 82 86 89 84 83 88 95 96
100 100 100 78 84 94 83 80 76 75 74 81 66 58 66 81 90 90 85 87 81 90 79 95 83 88 92 86 96 80 79 79 78 79 82 84 84 84 85 83 86 97 96
100 99 100 100 72 92 89 85 79 74 70 68 66 67 67 72 86 83 80 88 79 89 93 84 89 80 78 81 76 73 77 83 81 76 78 82 82 84 84 83 85 90 97
87 99 98 99 99 92 98 97 92 83 77 77 85 85 80 78 68 92 80 82 85 74 81 80 87 85 81 76 65 64 74 78 77 82 75 71 92 92 90 90 88 94 98
68 86 99 99 99 100 98 99 97 93 89 81 83 82 81 89 82 74 86 82 75 73 71 64 77 83 84 80 66 53 63 69 74 69 70 70 66 95 96 88 93 90 94
62 71 86 98 99 99 100 99 99 99 96 92 83 82 79 75 73 77 88 80 79 72 73 60 65 82 88 80 70 50 68 74 73 72 72 74 70 89 95 84 84 86 94
61 66 73 85 90 99 99 100 100 100 98 84 81 80 82 81 77 66 71 85 82 69 66 70 76 76 83 81 72 60 68 76 74 70 71 73 60 87 91 89 81 84 92
49 52 63 73 73 82 99 100 100 100 100 98 90 83 78 83 83 78 62 66 78 78 72 78 76 75 75 76 76 72 70 79 76 74 72 70 64 87 88 87 72 84 89
35 39 48 59 63 65 80 86 94 98 100 100 97 92 86 83 86 87 83 71 66 77 81 78 75 77 76 79 78 75 68 75 76 77 72 64 64 92 89 82 79 78 92
31 29 33 41 53 59 65 75 75 89 96 99 99 100 96 92 94 94 91 89 80 68 72 78 79 78 81 76 76 73 69 68 77 78 72 67 56 84 95 89 71 68 87
33 30 28 30 34 46 51 56 63 69 77 89 93 96 98 99 100 100 100 97 91 87 78 77 76 81 81 76 73 69 66 65 73 78 78 70 64 62 91 77 84 88 77
37 35 28 30 30 33 42 40 47 56 56 63 68 73 83 87 94 98 100 100 100 96 94 88 77 79 86 80 78 74 68 62 57 63 78 70 57 59 71 73 68 79 76
38 35 28 27 28 32 38 35 35 40 46 48 44 48 55 64 72 80 89 95 98 100 100 100 92 83 73 73 79 81 77 64 54 57 70 72 57 62 71 91 70 67 77
39 40 32 28 25 28 34 36 34 40 40 42 34 27 31 37 41 50 58 72 85 91 98 99 100 98 92 82 70 76 78 78 64 59 65 70 53 56 63 90 82 68 67
40 40 36 30 27 29 30 34 29 40 37 43 36 27 28 22 23 23 31 46 48 55 74 90 97 99 100 96 86 75 78 72 73 70 65 66 55 56 60 70 83 82 67
40 39 33 30 30 30 28 30 28 39 34 40 36 28 33 26 22 20 27 26 24 34 38 61 87 94 98 100 97 87 70 71 67 64 61 65 63 53 53 60 91 90 93
40 38 37 32 25 24 26 28 28 37 29 35 32 21 28 23 23 26 31 27 23 22 22 28 43 67 87 92 98 98 88 72 65 61 61 61 69 64 60 63 66 76 77
39 39 36 32 23 21 22 23 26 33 32 39 30 21 26 20 22 25 34 33 33 27 28 21 32 29 37 74 88 97 100 94 78 62 62 61 62 68 66 65 69 73 79
39 38 37 35 28 23 21 20 21 26 29 38 28 26 26 22 24 30 36 34 34 40 40 41 40 56 33 70 95 92 96 100 91 71 62 60 67 65 67 65 64 72 75
38 37 35 34 28 23 20 19 17 24 29 32 25 27 30 30 32 44 35 35 39 48 51 55 58 46 66 87 38 85 97 98 97 92 82 62 63 64 66 67 68 74 74
38 38 39 36 37 27 23 19 20 27 30 30 27 30 30 28 36 49 38 43 47 54 59 62 65 77 69 72 84 83 67 89 99 96 88 65 65 63 69 71 70 72 75
39 41 41 40 42 36 35 36 36 32 31 33 30 33 39 37 48 41 38 47 57 55 60 59 67 78 80 73 93 88 95 93 100 95 82 74 76 68 65 75 73 76 74
38 41 42 42 44 42 39 33 28 28 28 27 25 26 38 38 46 41 47 57 48 60 62 66 69 76 82 79 71 83 93 96 89 92 96 92 84 72 65 68 77 78 78
38 38 40 40 42 44 41 42 47 50 53 52 47 43 35 37 40 45 52 50 59 60 60 66 69 70 74 80 82 75 71 90 86 87 76 79 90 74 69 77 77 78 81
37 38 40 41 45 47 47 49 50 51 53 50 46 44 38 40 42 46 54 60 59 63 66 65 67 73 75 78 83 84 87 79 72 90 93 87 81 94 86 76 81 83 84
39 40 42 45 48 51 53 54 55 56 56 56 56 54 51 47 43 52 58 62 64 67 68 70 73 73 74 76 79 83 85 85 81 84 83 74 80 83 90 91 75 78 83